CPA389 VHHH-EDDF

Flight info

Callsign CPA389
Flight time N/A
Altitude 30100
Route BEKOL A461 SHL W22 TEPID W24 OSNOV G586 QP B330 PASLU/K0926S0980 B330 ELKAL W179 IGNAK/K0930S0950 W179 WFX/K0924S0980 W179 OMBON W195 VIDEK/K0930S0950 W195 ORUNA/K0917S1010 W195 LAXAL/K0924S0980 W195 IDOPA W197 ANDIM B215 IBANO G470 BIKNO/K0895S1040 G470 AKLAS W192 FKG A368 SARIN/K0891F340 N161 TIROK/K0885F360 N161 GASBI/N0484F360 N161 LEYLA T916 MATAL DCT TABAS DCT REBLO UM11 CRM UL746 GOKPA/N0483F380 UL746 ODERO DCT OPT DCT IRLOX DCT BALUX DCT TEKNO DCT ABETI DCT SUBEN DCT AKINI T161 DEBHI DEBHI1B
Aircraft A346/H-SDE2E3FGHIJ3J4J5M1RWXY/LB1D1

Departure

Time 2026-05-05 15:58
Airport Hong Kong International Airport (VHHH)

Arrival

Time N/A
Airport Frankfurt Main Airport (EDDF)
Time Latitude Longitude Altitude Speed Heading
2026-05-05 15:11 22.31469 113.92551 40 ft 0 kts 210°
2026-05-05 15:46 22.31474 113.92555 39 ft 4 kts 208°
2026-05-05 15:47 22.31497 113.92569 38 ft 4 kts 214°
2026-05-05 15:47 22.31512 113.92581 37 ft 4 kts 217°
2026-05-05 15:47 22.31540 113.92605 36 ft 4 kts 220°
2026-05-05 15:47 22.31555 113.92619 36 ft 0 kts 220°
2026-05-05 15:48 22.31555 113.92620 36 ft 0 kts 220°
2026-05-05 15:49 22.31555 113.92619 36 ft 0 kts 220°
2026-05-05 15:50 22.31551 113.92615 36 ft 1 kts 228°
2026-05-05 15:50 22.31547 113.92607 37 ft 1 kts 248°
2026-05-05 15:50 22.31547 113.92605 38 ft 0 kts 262°
2026-05-05 15:50 22.31564 113.92572 40 ft 11 kts 330°
2026-05-05 15:51 22.31600 113.92531 39 ft 8 kts 300°
2026-05-05 15:51 22.31628 113.92476 39 ft 9 kts 301°
2026-05-05 15:51 22.31675 113.92433 39 ft 10 kts 335°
2026-05-05 15:51 22.31728 113.92398 39 ft 8 kts 287°
2026-05-05 15:52 22.31726 113.92336 39 ft 9 kts 257°
2026-05-05 15:52 22.31705 113.92269 39 ft 10 kts 250°
2026-05-05 15:52 22.31680 113.92192 39 ft 11 kts 250°
2026-05-05 15:52 22.31652 113.92107 39 ft 12 kts 250°
2026-05-05 15:53 22.31622 113.92015 39 ft 14 kts 250°
2026-05-05 15:53 22.31575 113.91873 39 ft 24 kts 250°
2026-05-05 15:53 22.31518 113.91701 39 ft 24 kts 251°
2026-05-05 15:53 22.31465 113.91528 40 ft 24 kts 251°
2026-05-05 15:54 22.31409 113.91356 40 ft 24 kts 251°
2026-05-05 15:54 22.31352 113.91182 40 ft 25 kts 250°
2026-05-05 15:54 22.31295 113.91003 39 ft 25 kts 251°
2026-05-05 15:54 22.31238 113.90823 39 ft 26 kts 251°
2026-05-05 15:55 22.31181 113.90640 39 ft 26 kts 250°
2026-05-05 15:55 22.31121 113.90457 39 ft 26 kts 250°
2026-05-05 15:55 22.31060 113.90273 39 ft 26 kts 250°
2026-05-05 15:55 22.30999 113.90087 39 ft 26 kts 252°
2026-05-05 15:56 22.30941 113.89899 39 ft 26 kts 250°
2026-05-05 15:56 22.30898 113.89768 39 ft 7 kts 250°
2026-05-05 15:56 22.30902 113.89715 39 ft 13 kts 321°
2026-05-05 15:56 22.31015 113.89665 39 ft 16 kts 340°
2026-05-05 15:57 22.31062 113.89706 39 ft 8 kts 70°
2026-05-05 15:57 22.31107 113.89845 39 ft 43 kts 70°
2026-05-05 15:57 22.31266 113.90343 38 ft 96 kts 73°
2026-05-05 15:57 22.31534 113.91177 41 ft 140 kts 70°
2026-05-05 15:58 22.31907 113.92318 41 ft 179 kts 71°
2026-05-05 15:58 22.32328 113.93658 311 ft 190 kts 73°
2026-05-05 15:58 22.32747 113.95005 877 ft 188 kts 72°
2026-05-05 15:58 22.33174 113.96331 1437 ft 186 kts 69°
2026-05-05 15:59 22.33754 113.97575 1982 ft 184 kts 60°
2026-05-05 15:59 22.34524 113.98700 2357 ft 188 kts 54°
2026-05-05 15:59 22.35353 113.99821 2636 ft 194 kts 54°
2026-05-05 15:59 22.36207 114.00972 2945 ft 198 kts 54°
2026-05-05 16:00 22.37067 114.02162 3259 ft 203 kts 55°
2026-05-05 16:00 22.37922 114.03423 3490 ft 212 kts 56°
2026-05-05 16:00 22.38778 114.04764 3739 ft 222 kts 58°
2026-05-05 16:00 22.39631 114.06185 4037 ft 228 kts 61°
2026-05-05 16:01 22.40318 114.07760 4332 ft 235 kts 74°
2026-05-05 16:01 22.40535 114.09546 4520 ft 247 kts 98°
2026-05-05 16:01 22.40036 114.11366 4668 ft 260 kts 121°
2026-05-05 16:01 22.38987 114.12963 4941 ft 268 kts 131°
2026-05-05 16:02 22.37880 114.14637 5299 ft 278 kts 121°
2026-05-05 16:02 22.37025 114.16552 5753 ft 287 kts 113°
2026-05-05 16:02 22.36275 114.18577 6211 ft 293 kts 112°
2026-05-05 16:02 22.35517 114.20645 6679 ft 298 kts 113°
2026-05-05 16:03 22.34742 114.22747 7110 ft 304 kts 113°
2026-05-05 16:03 22.33938 114.24874 7645 ft 306 kts 114°
2026-05-05 16:03 22.33403 114.27111 8066 ft 314 kts 89°
2026-05-05 16:03 22.33928 114.29396 8528 ft 317 kts 59°
2026-05-05 16:04 22.35241 114.31299 9031 ft 317 kts 47°
2026-05-05 16:04 22.36729 114.33084 9512 ft 321 kts 47°
2026-05-05 16:04 22.38438 114.34628 9906 ft 323 kts 23°
2026-05-05 16:04 22.40593 114.35208 10262 ft 322 kts 356°
2026-05-05 16:05 22.42826 114.34860 10486 ft 329 kts 345°
2026-05-05 16:05 22.45109 114.34342 10686 ft 341 kts 346°
2026-05-05 16:05 22.47464 114.33793 10874 ft 351 kts 340°
2026-05-05 16:05 22.49631 114.32573 11025 ft 355 kts 317°
2026-05-05 16:06 22.51214 114.30570 11219 ft 359 kts 296°
2026-05-05 16:06 22.52038 114.28002 11408 ft 365 kts 278°
2026-05-05 16:06 22.52448 114.25266 11739 ft 371 kts 278°
2026-05-05 16:06 22.52867 114.22502 12187 ft 373 kts 278°
2026-05-05 16:07 22.53304 114.19726 12665 ft 374 kts 278°
2026-05-05 16:07 22.53776 114.16946 13138 ft 376 kts 283°
2026-05-05 16:07 22.54839 114.14347 13500 ft 383 kts 303°
2026-05-05 16:07 22.56695 114.12251 13932 ft 390 kts 321°
2026-05-05 16:08 22.59083 114.10822 14325 ft 395 kts 332°
2026-05-05 16:08 22.61579 114.09565 14725 ft 396 kts 332°
2026-05-05 16:08 22.64086 114.08301 15071 ft 399 kts 332°
2026-05-05 16:08 22.66605 114.07022 15444 ft 400 kts 332°
2026-05-05 16:09 22.69125 114.05735 15813 ft 402 kts 332°
2026-05-05 16:09 22.71661 114.04435 16187 ft 403 kts 332°
2026-05-05 16:09 22.73344 114.03571 16404 ft 404 kts 332°
2026-05-05 16:09 22.75896 114.02258 16768 ft 406 kts 332°
2026-05-05 16:10 22.78451 114.00942 17115 ft 408 kts 332°
2026-05-05 16:10 22.81024 113.99616 17436 ft 410 kts 332°
2026-05-05 16:10 22.83600 113.98288 17765 ft 411 kts 331°
2026-05-05 16:10 22.86203 113.96945 18102 ft 413 kts 332°
2026-05-05 16:11 22.88802 113.95604 18398 ft 415 kts 332°
2026-05-05 16:11 22.96641 113.91533 19225 ft 419 kts 331°
2026-05-05 16:12 22.99277 113.90159 19503 ft 421 kts 331°
2026-05-05 16:12 23.04581 113.87395 20052 ft 424 kts 332°
2026-05-05 16:13 23.11937 113.82112 20892 ft 423 kts 315°
2026-05-05 16:13 23.14061 113.79947 21165 ft 424 kts 314°
2026-05-05 16:13 23.16193 113.77715 21438 ft 426 kts 314°
2026-05-05 16:14 23.20475 113.73214 21982 ft 429 kts 314°
2026-05-05 16:14 23.34900 113.58090 23684 ft 439 kts 314°
2026-05-05 16:15 23.57226 113.34547 25962 ft 446 kts 313°
2026-05-05 16:15 23.74376 113.05990 28056 ft 448 kts 294°
2026-05-05 16:16 24.02176 112.89932 30072 ft 464 kts 339°
2026-05-05 16:16 24.34100 112.79295 30098 ft 465 kts 339°
2026-05-05 16:17 24.51173 112.52891 30094 ft 452 kts 277°
2026-05-05 16:17 24.52828 112.35200 30082 ft 451 kts 277°
2026-05-05 16:18 24.57870 111.81648 30070 ft 450 kts 277°
2026-05-05 16:19 24.62644 111.28942 30039 ft 454 kts 277°
2026-05-05 16:19 24.68720 110.75822 30037 ft 455 kts 294°
2026-05-05 16:20 25.04138 110.16887 30028 ft 457 kts 303°
2026-05-05 16:22 25.49401 109.41741 30028 ft 458 kts 303°
2026-05-05 16:23 25.85518 108.80897 30038 ft 460 kts 302°
2026-05-05 16:23 26.11941 108.34588 30047 ft 470 kts 296°
2026-05-05 16:24 26.26390 108.01082 30056 ft 471 kts 295°
2026-05-05 16:25 26.47661 107.51311 30060 ft 470 kts 295°
2026-05-05 16:25 26.68827 107.01343 30063 ft 469 kts 295°
2026-05-05 16:26 26.85960 106.70814 30029 ft 471 kts 317°
2026-05-05 16:26 27.10775 106.46568 30006 ft 471 kts 317°
2026-05-05 16:27 27.36206 106.21706 29971 ft 469 kts 318°
2026-05-05 16:27 27.61336 105.97107 29927 ft 468 kts 317°
2026-05-05 16:28 27.72789 105.83925 29905 ft 466 kts 301°
2026-05-05 16:28 27.78606 105.65992 29884 ft 466 kts 288°
2026-05-05 16:28 27.91768 105.31749 29849 ft 467 kts 296°
2026-05-05 16:29 28.00674 105.16092 29831 ft 471 kts 315°
2026-05-05 16:29 28.14631 105.05678 29815 ft 475 kts 326°
2026-05-05 16:29 28.43214 104.85684 29794 ft 474 kts 326°
2026-05-05 16:30 28.71880 104.65600 29781 ft 475 kts 325°
2026-05-05 16:30 28.99870 104.45775 29785 ft 476 kts 324°
2026-05-05 16:31 29.28837 104.27427 29791 ft 490 kts 347°
2026-05-05 16:31 29.46612 104.29436 29801 ft 501 kts
2026-05-05 16:31 29.63876 104.32441 29800 ft 500 kts
2026-05-05 16:32 29.98018 104.38281 29808 ft 501 kts
2026-05-05 16:32 30.31903 104.44151 29826 ft 501 kts
2026-05-05 16:33 30.65708 104.47257 29812 ft 482 kts 341°
2026-05-05 16:33 30.98656 104.38628 29819 ft 494 kts 354°
2026-05-05 16:34 31.33607 104.37561 29838 ft 493 kts 353°
2026-05-05 16:34 31.67948 104.35513 29874 ft 492 kts 354°
2026-05-05 16:35 32.02572 104.33678 29912 ft 490 kts 354°
2026-05-05 16:35 32.36517 104.31920 29936 ft 491 kts 353°
2026-05-05 16:36 32.70531 104.30270 29948 ft 490 kts 354°
2026-05-05 16:36 33.05237 104.28593 29918 ft 490 kts 354°
2026-05-05 16:37 33.39953 104.24163 29900 ft 478 kts 332°
2026-05-05 16:37 33.72083 104.11183 29868 ft 496 kts 357°
2026-05-05 16:38 34.07952 104.11256 29859 ft 500 kts 355°
2026-05-05 16:38 34.43726 104.11237 29882 ft 501 kts 355°
2026-05-05 16:39 34.79706 104.11231 29919 ft 504 kts 356°
2026-05-05 16:39 35.15102 104.11232 29977 ft 511 kts 356°
2026-05-05 16:40 35.51923 104.11220 30007 ft 512 kts 356°
2026-05-05 16:40 35.87628 104.10909 30033 ft 501 kts 351°
2026-05-05 16:41 36.22884 104.06984 30026 ft 496 kts 350°
2026-05-05 16:41 36.57804 104.02168 30022 ft 479 kts 331°
2026-05-05 16:42 36.68504 103.87283 30041 ft 455 kts 294°
2026-05-05 16:42 36.76165 103.69300 30060 ft 457 kts 295°
2026-05-05 16:42 36.91718 103.33062 30118 ft 460 kts 294°
2026-05-05 16:43 37.09189 102.97651 30169 ft 465 kts 297°
2026-05-05 16:43 37.27041 102.61809 30183 ft 467 kts 297°
2026-05-05 16:44 37.39811 102.23897 30188 ft 458 kts 280°
2026-05-05 16:44 37.47547 101.83930 30168 ft 459 kts 279°
2026-05-05 16:45 37.52517 101.64046 30152 ft 467 kts 290°
2026-05-05 16:45 37.60332 101.45457 30162 ft 470 kts 294°
2026-05-05 16:45 37.68205 101.26751 30151 ft 459 kts 297°
2026-05-05 16:45 37.76043 101.08333 30177 ft 455 kts 298°
2026-05-05 16:46 37.91767 100.72105 30193 ft 453 kts 300°
2026-05-05 16:46 38.07742 100.36025 30220 ft 453 kts 299°
2026-05-05 16:47 38.23505 99.99989 30252 ft 453 kts 298°
2026-05-05 16:47 38.39166 99.63785 30286 ft 454 kts 298°
2026-05-05 16:48 38.54777 99.27275 30295 ft 454 kts 297°
2026-05-05 16:48 38.70183 98.90827 30306 ft 454 kts 297°
2026-05-05 16:49 38.85450 98.54278 30310 ft 454 kts 296°
2026-05-05 16:49 39.00795 98.17107 30307 ft 455 kts 296°
2026-05-05 16:50 39.15995 97.79836 30301 ft 455 kts 296°
2026-05-05 16:50 39.30923 97.42876 30297 ft 454 kts 296°
2026-05-05 16:51 39.45980 97.05182 30257 ft 449 kts 295°
2026-05-05 16:51 39.60791 96.68108 30238 ft 444 kts 296°
2026-05-05 16:52 39.75414 96.30953 30201 ft 442 kts 296°
2026-05-05 16:52 39.89787 95.93944 30135 ft 445 kts 295°
2026-05-05 16:53 40.03959 95.56990 30080 ft 442 kts 294°
2026-05-05 16:53 40.18039 95.19795 30039 ft 441 kts 294°
2026-05-05 16:54 40.32863 94.83117 30037 ft 443 kts 302°
2026-05-05 16:54 40.52642 94.50209 30051 ft 445 kts 304°
2026-05-05 16:55 40.72432 94.17100 30083 ft 447 kts 304°
2026-05-05 16:55 40.92242 93.83703 30094 ft 450 kts 306°
2026-05-05 16:56 41.13265 93.51079 30112 ft 453 kts 307°
2026-05-05 16:56 41.34373 93.17947 30121 ft 453 kts 306°
2026-05-05 16:57 41.55379 92.84607 30126 ft 453 kts 305°
2026-05-05 16:57 41.72909 92.56493 30120 ft 455 kts 305°
2026-05-05 16:58 41.93648 92.22892 30115 ft 457 kts 305°
2026-05-05 16:58 42.14675 91.88429 30116 ft 459 kts 305°
2026-05-05 16:59 42.38141 91.55306 30130 ft 466 kts 312°
2026-05-05 16:59 42.63015 91.23227 30120 ft 468 kts 312°
2026-05-05 17:00 42.87444 90.90837 30111 ft 465 kts 307°
2026-05-05 17:00 43.05884 90.52058 30169 ft 442 kts 298°
2026-05-05 17:01 43.22565 90.14841 30208 ft 443 kts 298°
2026-05-05 17:01 43.39494 89.76627 30274 ft 448 kts 298°
2026-05-05 17:02 43.56499 89.37704 30309 ft 455 kts 300°
2026-05-05 17:02 43.74041 88.98265 30310 ft 462 kts 301°
2026-05-05 17:03 43.91706 88.57937 30290 ft 469 kts 302°
2026-05-05 17:03 44.09214 88.17394 30260 ft 474 kts 302°
2026-05-05 17:04 44.28834 87.77055 30219 ft 476 kts 309°
2026-05-05 17:04 44.49940 87.38398 30225 ft 478 kts 311°
2026-05-05 17:05 44.71742 87.00166 30205 ft 474 kts 314°
2026-05-05 17:05 44.93442 86.62078 30188 ft 470 kts 313°
2026-05-05 17:06 45.14935 86.23392 30185 ft 469 kts 313°
2026-05-05 17:06 45.35984 85.84988 30177 ft 468 kts 312°
2026-05-05 17:07 45.56773 85.46537 30190 ft 467 kts 311°
2026-05-05 17:07 45.77646 85.07528 30204 ft 464 kts 311°
2026-05-05 17:08 45.98180 84.68834 30240 ft 464 kts 310°
2026-05-05 17:08 46.18743 84.29521 30263 ft 463 kts 309°
2026-05-05 17:09 46.38822 83.90478 30253 ft 464 kts 309°
2026-05-05 17:09 46.59012 83.50529 30240 ft 464 kts 308°
2026-05-05 17:10 46.77846 83.09111 30231 ft 463 kts 304°
2026-05-05 17:10 46.86084 82.87208 30235 ft 467 kts 291°
2026-05-05 17:10 46.89255 82.62421 30240 ft 470 kts 281°
2026-05-05 17:11 46.94168 82.12575 30238 ft 470 kts 280°
2026-05-05 17:11 46.98959 81.61724 30223 ft 470 kts 279°
2026-05-05 17:12 47.03431 81.11461 30218 ft 470 kts 279°
2026-05-05 17:12 47.07673 80.61506 30199 ft 469 kts 278°
2026-05-05 17:13 47.09736 80.36124 30851 ft 474 kts 278°
2026-05-05 17:13 47.11670 80.11610 32880 ft 469 kts 278°
2026-05-05 17:13 47.13602 79.86372 34100 ft 467 kts 278°
2026-05-05 17:13 47.15543 79.61343 34098 ft 467 kts 278°
2026-05-05 17:14 47.19230 79.11142 34101 ft 468 kts 277°
2026-05-05 17:14 47.22615 78.60868 34109 ft 467 kts 276°
2026-05-05 17:15 47.25770 78.10534 34113 ft 465 kts 276°
2026-05-05 17:15 47.28668 77.60717 34117 ft 466 kts 275°
2026-05-05 17:16 47.31378 77.10123 34120 ft 467 kts 274°
2026-05-05 17:16 47.36225 76.60095 34112 ft 468 kts 278°
2026-05-05 17:17 47.41040 76.10196 34103 ft 468 kts 277°
2026-05-05 17:17 47.45717 75.59319 34102 ft 467 kts 277°
2026-05-05 17:18 47.50128 75.08831 34107 ft 467 kts 276°
2026-05-05 17:18 47.54285 74.58659 34117 ft 467 kts 276°
2026-05-05 17:19 47.58258 74.07938 34116 ft 467 kts 276°
2026-05-05 17:19 47.61972 73.57641 34119 ft 466 kts 275°
2026-05-05 17:20 47.65520 73.06462 34129 ft 466 kts 275°
2026-05-05 17:20 47.68781 72.56136 34128 ft 465 kts 274°
2026-05-05 17:21 47.71808 72.05939 34116 ft 465 kts 273°
2026-05-05 17:22 47.75282 71.30084 34088 ft 464 kts 271°
2026-05-05 17:22 47.77114 70.79165 34077 ft 463 kts 271°
2026-05-05 17:23 47.78682 70.29924 34060 ft 462 kts 271°
2026-05-05 17:23 47.80050 69.79691 34044 ft 462 kts 271°
2026-05-05 17:24 47.81199 69.29287 34040 ft 461 kts 270°
2026-05-05 17:24 47.81805 68.79570 34038 ft 459 kts 265°
2026-05-05 17:25 47.77437 68.30919 34027 ft 458 kts 261°
2026-05-05 17:25 47.72704 67.81750 34025 ft 456 kts 261°
2026-05-05 17:26 47.65815 67.33702 34020 ft 455 kts 258°
2026-05-05 17:26 47.58440 66.85838 34023 ft 454 kts 257°
2026-05-05 17:27 47.50779 66.38674 34015 ft 452 kts 257°
2026-05-05 17:27 47.42739 65.91167 34000 ft 451 kts 257°
2026-05-05 17:28 47.35004 65.44731 33983 ft 448 kts 257°
2026-05-05 17:28 47.26982 64.97675 33968 ft 446 kts 257°
2026-05-05 17:29 47.18950 64.51793 33960 ft 445 kts 257°
2026-05-05 17:29 47.10756 64.05846 33959 ft 445 kts 256°
2026-05-05 17:30 47.02392 63.60223 33951 ft 445 kts 256°
2026-05-05 17:30 46.93742 63.14192 33942 ft 445 kts 255°
2026-05-05 17:31 46.84916 62.68405 33933 ft 445 kts 255°
2026-05-05 17:31 46.75929 62.22726 33937 ft 443 kts 254°
2026-05-05 17:32 46.66871 61.77804 33931 ft 439 kts 253°
2026-05-05 17:32 46.57923 61.34404 35595 ft 437 kts 253°
2026-05-05 17:32 46.53417 61.12902 35921 ft 437 kts 252°
2026-05-05 17:33 46.48873 60.91444 35923 ft 436 kts 252°
2026-05-05 17:33 46.39569 60.48199 35914 ft 435 kts 252°
2026-05-05 17:34 46.30060 60.04928 35908 ft 435 kts 251°
2026-05-05 17:34 46.20373 59.61780 35901 ft 435 kts 251°
2026-05-05 17:35 46.10502 59.18869 35884 ft 434 kts 251°
2026-05-05 17:35 46.00682 58.77048 35889 ft 432 kts 250°
2026-05-05 17:36 45.90874 58.36059 35883 ft 429 kts 250°
2026-05-05 17:36 45.81038 57.95703 35868 ft 429 kts 249°
2026-05-05 17:37 45.71149 57.55828 35856 ft 429 kts 249°
2026-05-05 17:37 45.61358 57.17006 35850 ft 428 kts 248°
2026-05-05 17:38 45.51502 56.78593 35845 ft 428 kts 248°
2026-05-05 17:38 45.41168 56.38991 35846 ft 429 kts 247°
2026-05-05 17:39 45.30565 55.99040 35845 ft 430 kts 247°
2026-05-05 17:39 45.19793 55.59140 35849 ft 430 kts 246°
2026-05-05 17:40 45.07855 55.19981 35855 ft 428 kts 235°
2026-05-05 17:40 44.97965 55.04435 35862 ft 426 kts 223°
2026-05-05 17:40 44.87133 54.90449 35867 ft 424 kts 223°
2026-05-05 17:41 44.65503 54.61536 35876 ft 422 kts 230°
2026-05-05 17:41 44.48329 54.27704 35887 ft 422 kts 233°
2026-05-05 17:42 44.31401 53.94174 35899 ft 423 kts 233°
2026-05-05 17:42 44.14284 53.60653 35907 ft 422 kts 233°
2026-05-05 17:43 43.96963 53.27136 35912 ft 421 kts 233°
2026-05-05 17:43 43.79793 52.94279 35916 ft 419 kts 232°
2026-05-05 17:44 43.62492 52.61587 35924 ft 419 kts 232°
2026-05-05 17:44 43.47834 52.34231 35937 ft 418 kts 232°
2026-05-05 17:45 43.30011 52.01334 35943 ft 418 kts 231°
2026-05-05 17:45 43.12053 51.68556 35956 ft 418 kts 231°
2026-05-05 17:46 42.93584 51.35223 35957 ft 418 kts 231°
2026-05-05 17:46 42.75149 51.02322 35978 ft 418 kts 231°
2026-05-05 17:47 42.56488 50.69392 35983 ft 417 kts 230°
2026-05-05 17:47 42.38090 50.36391 35985 ft 418 kts 232°
2026-05-05 17:48 42.20272 50.02887 35996 ft 419 kts 232°
2026-05-05 17:48 42.02716 49.70243 36005 ft 419 kts 231°
2026-05-05 17:49 41.85200 49.38046 36009 ft 418 kts 231°
2026-05-05 17:49 41.68142 49.04527 36021 ft 419 kts 233°
2026-05-05 17:50 41.51226 48.71212 36005 ft 420 kts 231°
2026-05-05 17:50 41.34024 48.40022 35994 ft 423 kts 231°
2026-05-05 17:51 41.16264 48.07545 35982 ft 425 kts 233°
2026-05-05 17:51 41.09584 47.89269 35970 ft 431 kts 248°
2026-05-05 17:51 41.05818 47.69195 35971 ft 433 kts 252°
2026-05-05 17:52 40.98621 47.29216 35957 ft 432 kts 251°